sat.trackr.live / text

‹ back to catalog

2022-023C

NORAD 51948 · 2022-023C

PAYLOAD ACTIVE UNKNOWN

§ Identity

Operator
Country
PRC
Launch date
2022-03-05
Launch site
XICLF
Launch vehicle
Mass (kg)
RCS (m²)

External: N2YO · Heavens-Above · Gunter

§ Orbital elements

Epoch: 2026-09-20T22:59:12.726816Z

Period
94.86 min
Inclination
63.4854°
Eccentricity
0.0116852
Mean motion
15.18084963 rev/d
Perigee alt
431.1 km
Apogee alt
592.1 km
Semi-major
6,889.8 km
B*
6.3544e-4
RAAN
306.1845°
Arg perigee
352.2272°
Mean anomaly
7.7025°
Rev number
25,225

§ Raw data

2022-023C1 51948U 22023C   26263.95778619  .00015367  00000+0  63544-3 0  99932 51948  63.4854 306.1845 0116852 352.2272   7.7025 15.18084963252254

JSON: /api/v1/satellites/51948 · /tle

For live sub-satellite position, see the globe view (requires WebGL).

§ Visibility from observer

Set your observer location to see the next 7 days of passes ≥ 10°. The values pass through the URL so the page stays shareable.

No JS? Fill the form by hand. The geolocation button needs JavaScript.